Location: Newark
(51.2000°N, 58.6167°E)
Time: 09:21:28
(UTC+00:00)

Envisat - Pass Details

Date: 07 October 2020
Orbit: 764 x 766 km, 98.1° (Epoch: 23 October)

Event Time Altitude Azimuth Distance (km) Brightness Sun altitude
Rises 01:00:37 0° 25° (NNE) 3,244 6.7 -12.6°
Reaches altitude 10° 01:03:33 10° 42° (NE) 2,312 6.2 -12.2°
Maximum altitude 01:07:15 20° 89° (E) 1,714 6.0 -11.6°
Drops below altitude 10° 01:10:57 10° 136° (SE) 2,299 6.0 -11.0°
Sets 01:13:50 0° 153° (SSE) 3,219 6.5 -10.6°
